Salisbury, MD

9:31 PM EST on January 17, 2018 (GMT -0500)
Salisbury-Ocean City Wicomico Regional

Weather History for KSBY - September, 2013

Change the Weather History Date:

Friday, September 13, 2013

  Actual Average Record
Temperature  
Mean Temperature 73 °F 69 °F  
Max Temperature 81 °F 79 °F 96 °F (1915)
Min Temperature 64 °F 59 °F 39 °F (1941)
Degree Days  
Heating Degree Days 0 1  
Month to date heating degree days 0 5  
Since 1 July heating degree days 0 7  
Cooling Degree Days 8 5  
Month to date cooling degree days 154 86  
Year to date cooling degree days 1517 1069  
Growing Degree Days 24 (Base 50)    
Moisture  
Dew Point 61 °F    
Average Humidity 65    
Maximum Humidity 93    
Minimum Humidity 37    
Precipitation  
Precipitation T in 0.15 in 1.75 in (1950)
Month to date precipitation 0.32 1.68  
Year to date precipitation 40.00 32.75  
Snow  
Snow 0.00 in 0.00 in 0.00 in (2002)
Month to date snowfall 0.0 0.0  
Since 1 July snowfall 0.0 0.0  
Snow Depth 0.00 in    
Sea Level Pressure  
Sea Level Pressure 29.76 in    
Wind  
Wind Speed 9 mph (NW)    
Max Wind Speed 20 mph    
Max Gust Speed 25 mph    
Visibility 9 miles    
Events Rain    
T = Trace of Precipitation, MM = Missing Value Source: NWS Daily Summary

Daily Weather History Graph

Daily Weather History Graph

Search for Another Location

Airport or City:

Trip Planner

Search our weather history database for the weather conditions in past years. The results will help you decide how hot, cold, wet, or windy it might be!

Date:

Astronomy

Sep. 13, 2013 Rise Set
Actual Time 6:42 AM EDT 7:12 PM EDT
Civil Twilight 6:15 AM EDT 7:39 PM EDT
Nautical Twilight 5:44 AM EDT 8:10 PM EDT
Astronomical Twilight 5:12 AM EDT 8:42 PM EDT
Moon 2:57 PM EDT (9/13) 12:12 AM EDT (9/13)
Length of Visible Light 13h 23m
Length of Day
12h 30m
First Quarter, 61% of the Moon is Illuminated
Sep 13
First Quarter
Sep 19
Full
Sep 26
Last Quarter
Oct 4
New
Oct 11
First Quarter

Hourly Weather History & Observations

Time (EDT) Temp. Heat Index Dew Point Humidity Pressure Visibility Wind Dir Wind Speed Gust Speed Precip Events Conditions
12:54 AM 72.0 °F - 69.1 °F 91% 29.74 in 7.0 mi Calm Calm - 0.00 in   Partly Cloudy
1:54 AM 71.1 °F - 68.0 °F 90% 29.73 in 8.0 mi West 5.8 mph - N/A   Partly Cloudy
2:54 AM 73.0 °F - 70.0 °F 90% 29.70 in 6.0 mi WSW 5.8 mph - N/A   Overcast
3:54 AM 73.9 °F - 71.1 °F 91% 29.70 in 5.0 mi West 6.9 mph - 0.00 in   Mostly Cloudy
4:54 AM 73.9 °F - 70.0 °F 87% 29.69 in 7.0 mi WSW 5.8 mph - N/A   Partly Cloudy
5:54 AM 73.9 °F - 70.0 °F 87% 29.69 in 9.0 mi WNW 8.1 mph - N/A   Mostly Cloudy
6:54 AM 73.9 °F - 70.0 °F 87% 29.71 in 7.0 mi WNW 5.8 mph - N/A   Mostly Cloudy
7:54 AM 75.9 °F - 70.0 °F 82% 29.72 in 7.0 mi NW 6.9 mph - N/A   Mostly Cloudy
8:54 AM 77.0 °F - 66.9 °F 71% 29.73 in 10.0 mi NNW 11.5 mph - N/A   Partly Cloudy
9:54 AM 75.0 °F - 64.9 °F 71% 29.75 in 10.0 mi WNW 10.4 mph - N/A   Partly Cloudy
10:54 AM 77.0 °F - 63.0 °F 62% 29.75 in 10.0 mi NW 15.0 mph - N/A   Clear
11:54 AM 79.0 °F - 60.1 °F 52% 29.76 in 10.0 mi NNW 13.8 mph 23.0 mph N/A   Clear
12:54 PM 79.0 °F - 54.0 °F 42% 29.76 in 10.0 mi NW 15.0 mph 19.6 mph N/A   Partly Cloudy
1:54 PM 79.0 °F - 57.0 °F 47% 29.75 in 10.0 mi NNW 9.2 mph 16.1 mph N/A   Scattered Clouds
2:54 PM 80.1 °F 80.2 °F 55.9 °F 43% 29.74 in 10.0 mi WNW 13.8 mph 18.4 mph N/A   Partly Cloudy
3:54 PM 78.1 °F - 54.0 °F 43% 29.75 in 10.0 mi NNW 11.5 mph - N/A   Partly Cloudy
4:54 PM 80.1 °F 80.0 °F 54.0 °F 40% 29.75 in 10.0 mi NNW 15.0 mph 20.7 mph N/A   Mostly Cloudy
5:54 PM 79.0 °F - 50.0 °F 36% 29.76 in 10.0 mi NW 12.7 mph - N/A   Clear
6:54 PM 75.0 °F - 53.1 °F 46% 29.78 in 10.0 mi NW 4.6 mph - N/A   Clear
7:54 PM 69.1 °F - 57.9 °F 68% 29.82 in 10.0 mi NNW 4.6 mph - N/A   Partly Cloudy
8:54 PM 69.1 °F - 55.0 °F 61% 29.84 in 10.0 mi North 3.5 mph - N/A   Scattered Clouds
9:54 PM 70.0 °F - 55.0 °F 59% 29.86 in 10.0 mi North 3.5 mph - 0.00 in Rain Light Rain
10:54 PM 68.0 °F - 55.0 °F 63% 29.88 in 10.0 mi NNW 5.8 mph - 0.00 in   Mostly Cloudy
11:54 PM 66.0 °F - 55.0 °F 68% 29.88 in 10.0 mi NW 4.6 mph - N/A   Clear